Wind_Speed
45 43 42 41 40 39 38 37 37 36 36 35 35 34 34 34 35 36 36 37 37 38 38 39 39 39 40 41 42 42 42 43 44 44 45 46 47 47 48 50 51 52 53
45 44 43 41 41 40 39 38 37 36 36 36 36 35 35 35 36 37 37 37 38 38 38 39 39 40 40 41 42 42 42 44 45 45 45 46 47 48 49 50 52 53 54
46 45 44 43 42 41 40 39 38 38 37 37 36 36 36 37 37 37 38 38 38 38 39 39 39 40 41 41 41 42 43 44 45 46 46 46 47 48 50 51 53 54 55
47 46 45 44 42 42 41 40 39 39 39 38 38 38 38 38 38 38 38 38 38 38 39 39 39 40 40 41 41 42 43 44 46 47 47 47 48 49 50 52 53 54 56
48 47 45 44 44 43 42 41 41 40 39 39 39 38 38 38 38 38 38 38 38 39 39 39 39 40 40 41 42 43 44 45 46 47 47 48 49 50 51 53 54 55 56
48 48 47 46 45 44 43 42 42 41 41 40 39 39 38 38 38 38 39 39 39 39 38 39 39 40 40 41 42 43 44 45 46 47 47 48 50 51 52 54 56 57 57
48 48 47 46 45 44 44 43 42 41 41 40 40 40 39 39 39 38 39 39 39 38 38 39 40 40 40 41 43 43 44 45 46 47 48 49 51 52 54 56 57 58 58
49 48 47 46 46 45 45 43 43 42 41 41 41 41 40 39 39 39 39 39 38 38 39 40 40 40 40 42 42 43 44 45 46 48 49 50 52 53 55 56 57 57 58
49 48 48 47 47 46 45 44 44 43 43 42 42 41 39 39 38 38 39 38 38 39 39 40 39 40 41 42 42 43 44 45 46 48 50 51 52 54 55 56 57 57 58
49 48 48 48 47 46 45 45 45 44 43 42 41 40 38 38 38 38 38 38 38 39 39 39 39 40 41 41 42 43 44 45 47 49 50 51 53 54 55 56 57 58 59
48 48 48 48 47 46 45 45 45 44 43 42 41 39 38 38 38 38 38 38 38 39 39 39 40 40 40 41 41 43 44 46 47 49 50 52 53 54 55 56 58 59 59
46 47 47 47 47 46 46 45 44 43 42 41 39 38 38 38 37 37 37 37 38 38 39 39 39 40 40 40 42 43 45 46 48 49 51 52 53 54 55 57 59 59 59
46 46 45 46 45 45 45 43 43 42 41 40 39 39 38 37 37 37 37 38 38 39 39 39 39 40 40 41 42 44 45 47 48 50 50 51 52 54 56 58 59 59 58
45 44 44 44 44 44 44 43 42 42 41 40 39 39 38 37 37 37 38 38 38 38 39 39 39 40 41 42 43 44 46 47 49 50 50 51 53 54 55 57 57 57 56
46 45 44 44 43 44 43 42 42 41 40 40 39 39 38 37 37 37 37 37 38 38 38 38 39 39 40 42 43 44 46 47 48 49 49 51 53 54 55 56 56 55 53
46 45 45 44 43 43 42 42 41 40 39 39 38 38 37 37 37 37 37 37 37 38 38 38 38 39 40 42 43 44 46 47 48 48 49 51 52 53 54 55 54 52 50
45 45 44 44 43 42 42 41 40 39 38 37 37 37 36 36 36 36 36 36 36 37 37 37 38 39 41 41 43 44 45 46 47 47 49 50 51 52 53 52 51 49 47
44 44 43 43 42 41 41 41 40 39 38 37 36 36 36 36 36 36 36 36 36 36 36 37 38 39 39 41 42 43 44 45 45 46 48 49 50 51 51 50 48 47 45
44 43 42 41 41 41 41 41 40 39 38 37 36 36 36 35 35 35 35 35 35 35 36 36 37 37 38 40 41 42 43 43 44 46 47 48 49 49 48 47 45 44 42
44 42 41 40 40 40 39 38 38 37 37 36 36 36 35 35 35 35 35 35 34 34 35 35 36 37 39 40 40 41 41 42 43 45 46 47 47 47 45 44 43 42 39
44 42 42 41 40 39 38 37 37 37 36 35 35 35 35 35 34 34 34 33 33 33 34 34 35 37 39 39 39 39 40 41 42 44 45 45 44 43 42 42 41 38 36
42 42 41 40 39 38 38 37 37 37 37 36 36 35 35 34 33 33 32 32 32 33 34 34 35 37 38 38 38 38 39 40 42 43 43 43 42 41 40 39 38 35 34
39 40 40 39 39 39 38 37 37 37 37 36 36 35 34 33 32 32 31 31 32 32 33 34 34 35 36 36 37 37 38 40 41 42 41 40 40 39 38 37 35 34 33
36 38 39 39 40 40 39 38 37 36 36 35 35 34 34 32 32 32 32 32 32 32 32 32 33 34 34 35 36 37 38 39 40 40 39 38 38 37 36 35 34 33 31
36 37 37 37 38 38 38 37 36 35 34 34 33 33 32 32 32 32 32 31 31 31 31 31 32 33 34 34 35 36 36 37 38 38 37 37 36 36 35 34 33 31 29
35 35 35 35 35 36 36 35 35 34 33 32 32 31 31 31 31 31 31 30 29 29 30 31 32 33 33 33 33 34 35 36 37 36 35 35 35 34 34 32 31 29 26
Wind_Direction
234 235 237 239 241 243 246 248 250 253 255 259 262 266 270 273 277 280 283 285 287 289 291 293 296 298 299 301 303 304 305 307 308 310 310 310 311 311 311 311 312 312 312
234 235 237 239 241 243 245 248 250 252 255 258 262 265 269 273 276 279 281 284 286 288 291 293 295 297 299 301 302 303 305 307 308 310 311 311 311 311 311 312 312 313 313
233 235 237 238 240 242 244 247 249 252 255 258 262 265 269 272 275 278 281 283 285 287 290 292 294 296 298 300 302 303 305 307 308 310 311 311 311 312 312 313 313 314 313
232 234 236 237 239 241 244 246 249 252 255 258 261 265 269 272 274 277 281 283 285 287 290 291 293 295 297 299 301 303 305 307 308 309 310 311 312 313 313 313 314 314 314
233 234 236 237 238 241 243 246 249 252 255 258 261 265 268 271 274 277 280 282 284 286 289 290 292 295 297 299 301 303 305 307 308 309 311 311 312 313 314 314 314 314 314
233 234 235 237 239 241 243 246 248 251 254 257 261 264 268 270 274 277 280 282 284 286 289 291 293 295 297 299 301 303 305 307 308 310 311 312 312 313 314 314 314 314 315
232 233 234 236 238 241 243 246 248 251 254 257 260 263 266 269 273 276 279 281 284 287 288 290 293 295 297 298 300 303 305 307 309 310 311 313 313 314 314 315 315 315 316
230 231 233 235 237 240 243 246 248 251 253 256 259 262 266 269 272 275 278 281 284 286 288 290 292 295 296 298 300 303 305 307 309 311 312 312 313 314 315 316 316 317 317
229 231 233 234 237 239 242 245 247 250 253 256 260 263 265 269 271 274 278 281 284 286 288 290 292 294 295 298 300 303 305 307 309 310 311 313 314 315 316 317 318 318 319
228 230 232 234 236 238 241 243 246 249 253 256 260 263 265 268 271 274 278 281 283 286 288 290 291 293 295 298 301 303 305 307 309 311 312 313 315 317 318 318 319 319 320
228 230 231 233 235 237 240 242 246 249 252 255 258 261 264 268 271 274 277 281 283 286 287 289 291 293 297 299 302 304 305 307 310 312 313 314 316 318 318 319 320 320 321
229 230 232 234 235 238 240 242 245 248 251 254 257 260 264 268 271 274 278 281 283 285 287 289 291 294 297 300 302 304 306 308 310 312 314 315 317 318 319 319 320 321 321
229 230 232 234 236 238 240 243 245 248 250 254 257 260 264 267 271 274 278 281 283 285 287 290 292 294 297 300 302 304 307 309 311 313 314 316 317 319 319 320 321 321 321
229 230 233 236 237 239 241 244 246 248 250 252 255 259 263 266 270 273 276 279 282 285 288 290 292 295 297 300 302 305 307 310 312 314 315 316 318 319 320 321 322 322 322
229 232 234 237 239 240 241 243 246 248 249 252 256 259 262 265 269 272 274 278 282 285 288 290 292 295 298 301 303 306 308 311 313 314 315 317 318 319 321 322 323 323 323
231 232 234 236 238 240 241 243 245 248 251 253 256 259 262 265 268 271 274 278 282 286 289 290 292 295 298 301 303 306 309 311 313 315 316 318 319 321 322 323 324 324 325
231 232 233 235 236 238 240 242 245 249 251 254 257 259 262 264 268 271 275 279 283 287 289 291 294 296 299 301 304 307 309 312 314 316 317 319 321 322 323 324 325 325 326
230 231 232 234 235 238 240 242 245 248 251 254 257 260 263 265 268 271 275 279 283 286 289 292 295 298 300 302 305 308 310 313 315 317 318 320 321 323 324 324 325 326 327
230 231 232 233 235 238 240 242 245 248 251 254 257 260 263 265 268 271 275 279 283 287 290 293 296 298 301 304 307 309 311 313 315 317 319 321 322 323 324 325 326 327 328
230 231 232 233 236 237 239 241 245 248 250 254 257 259 262 264 267 271 275 278 283 287 290 293 296 298 301 304 307 310 312 314 316 318 320 322 323 324 325 326 327 328 329
231 232 233 234 235 237 240 243 246 247 250 253 256 259 261 264 267 270 274 277 282 285 289 293 296 299 302 305 308 310 313 315 317 319 321 323 324 325 326 327 328 329 330
232 233 234 235 236 238 241 244 247 249 251 253 256 257 260 263 266 270 274 277 281 284 289 293 297 300 303 306 308 311 314 316 318 320 322 324 325 325 326 328 329 330 331
231 232 232 234 235 238 240 243 245 248 250 252 254 257 260 263 266 270 273 277 280 284 289 293 297 300 303 306 309 312 314 316 318 320 322 324 324 326 327 328 329 330 331
231 232 234 235 236 238 241 243 245 248 249 250 252 256 260 262 266 270 274 277 280 284 289 293 298 302 305 307 310 312 315 317 319 321 322 323 324 326 327 328 328 329 331
232 233 234 236 238 240 242 243 245 246 248 250 253 256 259 262 266 271 276 278 281 284 288 293 298 302 305 307 310 312 315 317 319 321 322 323 324 325 326 327 328 329 330
232 233 233 235 237 239 240 241 244 246 248 250 253 256 259 263 268 272 275 278 281 285 289 294 298 301 304 307 310 313 316 318 320 321 321 322 323 324 325 327 328 329 330
Height
5721 5726 5730 5735 5739 5742 5745 5748 5750 5752 5753 5755 5755 5756 5756 5755 5754 5753 5752 5749 5747 5744 5741 5737 5734 5730 5726 5721 5717 5712 5706 5701 5696 5690 5682 5676 5669 5662 5654 5647 5640 5633 5625
5711 5716 5721 5725 5729 5733 5736 5739 5741 5743 5745 5746 5747 5747 5747 5747 5746 5745 5743 5741 5739 5736 5733 5729 5725 5721 5718 5713 5708 5703 5698 5692 5687 5681 5674 5667 5660 5653 5645 5638 5630 5622 5614
5701 5706 5711 5716 5720 5724 5727 5730 5732 5734 5736 5737 5738 5739 5738 5738 5737 5736 5734 5732 5730 5727 5724 5720 5717 5713 5709 5704 5700 5695 5689 5684 5677 5672 5665 5658 5651 5644 5636 5628 5620 5612 5603
5690 5696 5701 5706 5710 5714 5718 5720 5723 5725 5727 5728 5729 5730 5730 5729 5728 5727 5725 5724 5721 5718 5715 5712 5708 5704 5700 5695 5691 5686 5681 5675 5669 5662 5656 5649 5642 5634 5627 5619 5610 5601 5593
5680 5686 5691 5696 5700 5704 5707 5711 5713 5716 5717 5719 5720 5720 5720 5720 5719 5718 5717 5715 5712 5709 5706 5703 5699 5695 5691 5687 5682 5677 5672 5666 5660 5653 5647 5640 5632 5625 5617 5609 5600 5592 5582
5669 5675 5680 5685 5690 5694 5697 5701 5704 5706 5708 5709 5711 5711 5711 5711 5710 5709 5707 5705 5703 5700 5697 5694 5690 5686 5682 5678 5673 5668 5663 5657 5651 5644 5637 5630 5623 5615 5607 5598 5589 5581 5573
5658 5664 5670 5675 5679 5683 5687 5690 5693 5696 5698 5700 5701 5702 5702 5702 5701 5699 5697 5696 5693 5691 5688 5685 5681 5677 5673 5669 5664 5659 5653 5647 5641 5635 5628 5620 5613 5606 5597 5589 5578 5568 5559
5647 5653 5659 5664 5669 5673 5677 5680 5683 5686 5688 5690 5691 5692 5692 5692 5691 5690 5688 5686 5684 5682 5679 5676 5672 5668 5664 5660 5655 5650 5644 5638 5632 5625 5618 5611 5602 5594 5586 5577 5567 5558 5548
5636 5642 5648 5653 5658 5662 5666 5670 5673 5675 5677 5679 5681 5682 5682 5682 5681 5680 5678 5677 5675 5672 5670 5667 5663 5659 5655 5651 5646 5641 5635 5629 5622 5615 5608 5600 5592 5583 5575 5566 5556 5547 5538
5626 5632 5637 5642 5647 5652 5656 5659 5662 5664 5667 5669 5670 5672 5672 5672 5672 5670 5669 5667 5666 5663 5661 5657 5654 5650 5646 5641 5636 5631 5626 5619 5613 5605 5598 5590 5582 5573 5564 5555 5546 5536 5526
5614 5620 5626 5631 5636 5641 5645 5648 5651 5654 5656 5658 5660 5661 5662 5662 5661 5660 5659 5658 5656 5653 5651 5648 5644 5640 5636 5632 5627 5622 5616 5610 5603 5596 5588 5580 5572 5563 5554 5544 5535 5525 5515
5604 5609 5615 5620 5625 5630 5634 5637 5640 5643 5646 5648 5649 5651 5651 5652 5652 5651 5649 5648 5646 5644 5641 5638 5635 5631 5627 5622 5618 5612 5606 5600 5593 5586 5579 5571 5562 5553 5543 5534 5524 5513 5503
5593 5599 5604 5610 5614 5619 5623 5627 5630 5633 5635 5637 5639 5640 5641 5642 5642 5641 5640 5638 5636 5634 5632 5629 5625 5622 5618 5613 5608 5603 5597 5590 5584 5577 5569 5561 5552 5543 5534 5523 5513 5502 5491
5583 5589 5594 5599 5604 5608 5612 5616 5619 5622 5625 5627 5629 5630 5631 5632 5632 5631 5630 5628 5626 5624 5622 5619 5616 5612 5608 5604 5599 5593 5587 5581 5574 5567 5559 5551 5542 5533 5524 5514 5503 5493 5482
5573 5579 5584 5589 5594 5598 5602 5605 5609 5612 5614 5617 5619 5620 5621 5622 5622 5621 5620 5618 5617 5615 5612 5609 5606 5603 5599 5594 5589 5584 5578 5571 5564 5556 5548 5540 5532 5523 5514 5504 5494 5484 5474
5563 5569 5574 5579 5583 5587 5591 5595 5598 5601 5604 5606 5608 5609 5610 5611 5611 5610 5610 5608 5607 5605 5603 5600 5597 5593 5589 5585 5580 5574 5568 5561 5554 5547 5539 5531 5522 5513 5504 5494 5485 5475 5466
5553 5559 5564 5569 5573 5577 5581 5585 5588 5591 5593 5596 5597 5599 5600 5601 5601 5600 5600 5599 5597 5595 5593 5591 5587 5584 5580 5575 5570 5564 5558 5552 5544 5537 5530 5521 5513 5504 5495 5486 5477 5467 5459
5543 5548 5553 5558 5563 5567 5571 5574 5578 5581 5583 5585 5587 5589 5590 5590 5591 5591 5590 5589 5588 5586 5584 5581 5578 5574 5570 5565 5560 5555 5548 5542 5535 5528 5520 5512 5504 5496 5487 5478 5469 5461 5452
5532 5538 5543 5548 5552 5556 5560 5564 5567 5570 5573 5575 5577 5579 5580 5580 5580 5580 5580 5580 5579 5577 5575 5572 5568 5565 5560 5556 5551 5545 5539 5533 5526 5519 5512 5504 5496 5487 5479 5471 5463 5454 5446
5522 5528 5533 5538 5542 5547 5550 5554 5557 5560 5562 5565 5567 5569 5570 5570 5570 5571 5571 5570 5569 5567 5565 5562 5559 5555 5551 5547 5541 5536 5530 5524 5517 5511 5503 5496 5488 5480 5472 5464 5456 5449 5441
5511 5517 5523 5528 5532 5537 5540 5543 5547 5550 5552 5555 5557 5559 5560 5560 5561 5561 5561 5560 5559 5558 5556 5553 5550 5546 5542 5537 5532 5527 5521 5515 5509 5502 5495 5488 5480 5473 5465 5458 5451 5443 5437
5501 5507 5512 5517 5522 5526 5530 5533 5536 5539 5542 5545 5547 5548 5549 5550 5551 5552 5551 5551 5550 5548 5546 5544 5541 5537 5533 5528 5524 5519 5513 5507 5501 5495 5488 5481 5474 5467 5460 5453 5446 5439 5433
5491 5496 5502 5507 5511 5515 5519 5523 5526 5529 5532 5535 5537 5538 5540 5541 5542 5542 5542 5542 5540 5539 5537 5534 5531 5528 5524 5520 5515 5510 5505 5500 5494 5487 5481 5474 5468 5461 5455 5448 5442 5435 5429
5481 5486 5491 5496 5501 5505 5509 5512 5516 5519 5522 5524 5527 5529 5530 5532 5533 5533 5533 5532 5531 5530 5528 5526 5523 5519 5515 5511 5507 5502 5497 5492 5486 5480 5474 5468 5462 5456 5450 5444 5438 5432 5426
5472 5476 5481 5485 5490 5494 5498 5502 5506 5509 5512 5515 5517 5519 5521 5522 5523 5524 5524 5523 5522 5521 5519 5517 5514 5511 5507 5503 5499 5495 5489 5484 5479 5473 5467 5462 5456 5451 5445 5439 5434 5428 5423
5462 5466 5471 5475 5479 5484 5488 5492 5496 5500 5503 5506 5508 5511 5512 5513 5514 5514 5515 5514 5513 5512 5510 5508 5505 5502 5499 5495 5491 5487 5482 5477 5472 5466 5461 5456 5451 5445 5440 5435 5430 5424 5419